CZ-2C DEB (55692 NORAD) Tracking and Keplerian Element Data

This shows tracking and keplerian element data for the satellite.

Feedback or suggestion? Click here.




ElementValue
Catalog55692
NameCZ-2C DEB
Epoch Orbit455
Epoch Day85.16312475
Epoch Year2023
RAAN159.3041
Inclination97.6458
Eccentricity0.0084068
Argument of Perigee125.9658
Mean Anonmoly234.8825
Mean Motion15.19640304
Decay Rate0.00104246
L11 55692U 23025C 23085.16312475 .00104246 00000+0 44000-2 0 9992
L22 55692 97.6458 159.3041 0084068 125.9658 234.8825 15.19640304 4552



Live tracking and technical data element details for CZ-2C DEB (NORAD 55692). CZ-2C DEB can be tracked NOW for your location showing map with azimuth and elevation plus other details from your city location.







IsCatalogInMostPopularTable: catalog: 55692, numindb: 7
Update: records affected: 1



GetName: 55692 CZ-2C DEB

Hit Count: updated at: Tue, 28 Mar 2023 03:00:05 GMT